DW5010 Weather Reports


Display with metric or nautical units.
time (UTC)temp
F
wind
direction
speed
MPH
gust
MPH
rain 1hr
in
rain 24hr
in
rain mn
in
humidity
%
barometer
mb
20260901164542 86 154 3.0 7.0 0.00 0.00 0.00 79 1013.7
20260901164020 85 253 1.0 5.0 0.00 0.00 0.00 79 1013.8
20260901163523 84 249 2.0 5.0 0.00 0.00 0.00 80 1013.8
20260901163036 84 259 2.0 5.0 0.00 0.00 0.00 80 1013.8
20260901162519 84 297 1.0 6.0 0.00 0.00 0.00 81 1013.7
20260901162019 84 118 2.0 7.0 0.00 0.00 0.00 80 1013.9
20260901161552 84 199 2.0 7.0 0.00 0.00 0.00 81 1013.9
20260901161016 84 178 1.0 6.0 0.00 0.00 0.00 81 1014.1
20260901160523 84 190 2.0 5.0 0.00 0.00 0.00 80 1014.3
20260901160038 84 170 1.0 4.0 0.00 0.00 0.00 79 1014.3
20260901155518 84 167 1.0 4.0 0.00 0.00 0.00 79 1014.2
20260901155019 84 193 0.0 3.0 0.00 0.00 0.00 79 1014.1
20260901154551 84 0 0.0 5.0 0.00 0.00 0.00 79 1014.1
20260901154021 84 236 1.0 5.0 0.00 0.00 0.00 79 1014.0
20260901153527 84 173 1.0 5.0 0.00 0.00 0.00 79 1014.0
20260901153043 84 0 0.0 4.0 0.00 0.00 0.00 78 1014.0
20260901152519 84 234 0.0 4.0 0.00 0.00 0.00 78 1014.1
20260901152017 85 209 1.0 4.0 0.00 0.00 0.00 78 1014.0
20260901151540 84 159 1.0 3.0 0.00 0.00 0.00 79 1013.9
20260901151019 84 259 1.0 4.0 0.00 0.00 0.00 81 1013.9
20260901150518 83 0 1.0 5.0 0.00 0.00 0.00 81 1013.8
20260901150041 83 250 1.0 5.0 0.00 0.00 0.00 83 1014.0
20260901145519 82 165 2.0 5.0 0.00 0.00 0.00 82 1014.0
20260901145018 82 263 2.0 5.0 0.00 0.00 0.00 82 1014.0
20260901144546 82 219 2.0 4.0 0.00 0.00 0.00 82 1013.9
20260901144022 82 186 0.0 3.0 0.00 0.00 0.00 83 1013.9
20260901143517 81 0 1.0 5.0 0.00 0.00 0.00 83 1014.0
20260901143045 81 174 1.0 5.0 0.00 0.00 0.00 83 1013.9
20260901142519 81 241 3.0 6.0 0.00 0.00 0.00 83 1013.9
20260901142018 80 232 2.0 7.0 0.00 0.00 0.00 85 1014.0
20260901141547 80 238 1.0 7.0 0.00 0.00 0.00 85 1014.1
20260901141018 79 192 2.0 5.0 0.00 0.00 0.00 87 1014.1
20260901140517 79 171 2.0 5.0 0.00 0.00 0.00 87 1014.0
20260901140038 78 0 1.0 5.0 0.00 0.00 0.00 88 1014.0
20260901135519 78 219 1.0 5.0 0.00 0.00 0.00 89 1014.0
20260901135021 77 178 1.0 5.0 0.00 0.00 0.00 90 1014.0
20260901134535 77 206 1.0 5.0 0.00 0.00 0.00 90 1014.0
20260901134018 76 0 0.0 5.0 0.00 0.00 0.00 90 1014.0
20260901133518 76 205 3.0 6.0 0.00 0.00 0.00 91 1013.9
20260901133037 76 184 2.0 6.0 0.00 0.00 0.00 92 1014.0
20260901132521 76 244 1.0 6.0 0.00 0.00 0.00 93 1013.9
20260901132021 75 216 2.0 6.0 0.00 0.00 0.00 93 1013.9
20260901131539 75 168 1.0 4.0 0.00 0.00 0.00 94 1014.0
20260901131023 74 252 1.0 4.0 0.00 0.00 0.00 94 1014.0
20260901130520 74 250 0.0 4.0 0.00 0.00 0.00 94 1013.9
20260901130035 74 0 0.0 5.0 0.00 0.00 0.00 95 1014.0
20260901125519 74 0 0.0 5.0 0.00 0.03 0.00 95 1014.0
20260901125016 74 215 1.0 4.0 0.00 0.03 0.00 95 1014.0
20260901124536 73 217 0.0 4.0 0.00 0.03 0.00 95 1014.0
20260901124018 73 194 0.0 1.0 0.00 0.03 0.00 95 1014.1
20260901123518 73 0 0.0 0.0 0.00 0.03 0.00 95 1014.0
20260901123040 73 0 0.0 0.0 0.00 0.03 0.00 95 1013.9
20260901122521 73 0 0.0 0.0 0.00 0.03 0.00 95 1014.0
20260901122021 72 0 0.0 0.0 0.00 0.03 0.00 95 1013.9
20260901121538 72 0 0.0 0.0 0.00 0.03 0.00 95 1013.8
20260901121020 72 0 0.0 0.0 0.00 0.03 0.00 95 1013.7
20260901120519 72 0 0.0 0.0 0.00 0.03 0.00 95 1013.8
20260901120035 71 0 0.0 0.0 0.00 0.03 0.00 95 1013.8
20260901115520 71 0 0.0 0.0 0.00 0.03 0.00 95 1013.7
20260901115020 71 0 0.0 0.0 0.00 0.03 0.00 95 1013.5
20260901114548 71 0 0.0 0.0 0.00 0.03 0.00 94 1013.4
20260901114019 71 0 0.0 0.0 0.00 0.03 0.00 94 1013.2
20260901113519 71 0 0.0 0.0 0.00 0.03 0.00 94 1013.3
20260901113037 71 0 0.0 0.0 0.00 0.03 0.00 94 1013.1
20260901112520 71 0 0.0 0.0 0.00 0.03 0.00 94 1012.9
20260901112015 71 0 0.0 0.0 0.00 0.03 0.00 94 1012.9
20260901111541 71 0 0.0 0.0 0.00 0.03 0.00 94 1012.9
20260901111020 71 0 0.0 0.0 0.00 0.03 0.00 94 1012.8
20260901110517 71 0 0.0 0.0 0.00 0.03 0.00 93 1012.8
20260901110035 71 0 0.0 0.0 0.00 0.03 0.00 93 1012.8
20260901105519 71 0 0.0 0.0 0.00 0.25 0.00 93 1012.8
20260901105017 72 0 0.0 0.0 0.00 0.25 0.00 93 1012.8
20260901104534 72 0 0.0 0.0 0.00 0.25 0.00 93 1012.8
20260901104019 72 0 0.0 0.0 0.00 0.25 0.00 94 1012.9
20260901103517 72 0 0.0 0.0 0.00 0.25 0.00 93 1012.7
20260901103038 72 0 0.0 0.0 0.00 0.25 0.00 94 1012.7
20260901102516 72 0 0.0 0.0 0.00 0.25 0.00 94 1012.7
20260901102021 72 0 0.0 2.0 0.00 0.25 0.00 93 1012.7
20260901101539 72 0 0.0 2.0 0.00 0.25 0.00 93 1012.7
20260901101022 71 211 0.0 2.0 0.00 0.25 0.00 93 1012.7
20260901100517 71 0 0.0 1.0 0.00 0.25 0.00 93 1012.7
20260901100034 71 0 0.0 1.0 0.00 0.25 0.00 93 1012.7
20260901095517 71 0 0.0 0.0 0.00 0.27 0.00 93 1012.8
20260901095016 71 0 0.0 1.0 0.00 0.27 0.00 93 1012.7
20260901094541 71 0 0.0 1.0 0.00 0.27 0.00 93 1012.7
20260901094018 71 0 0.0 1.0 0.00 0.27 0.00 93 1012.7
20260901093519 71 0 0.0 1.0 0.00 0.27 0.00 92 1012.7
20260901093038 71 0 0.0 1.0 0.00 0.27 0.00 92 1012.7
20260901092516 71 0 0.0 0.0 0.00 0.27 0.00 92 1012.7
20260901092019 72 0 0.0 0.0 0.00 0.27 0.00 92 1012.7
20260901091535 72 0 0.0 0.0 0.00 0.27 0.00 92 1012.7
20260901091016 72 0 0.0 0.0 0.00 0.27 0.00 92 1012.6
20260901090515 72 0 0.0 0.0 0.00 0.27 0.00 92 1012.6
20260901090046 72 0 0.0 0.0 0.00 0.27 0.00 92 1012.6
20260901085516 72 0 0.0 0.0 0.00 0.27 0.00 91 1012.7
20260901085019 72 0 0.0 0.0 0.00 0.27 0.00 91 1012.6
20260901084543 72 0 0.0 0.0 0.00 0.27 0.00 91 1012.6
20260901084022 73 0 0.0 0.0 0.00 0.27 0.00 91 1012.7
20260901083518 73 0 0.0 0.0 0.00 0.27 0.00 91 1012.7
20260901083038 73 0 0.0 1.0 0.00 0.27 0.00 90 1012.5
20260901082515 73 0 0.0 2.0 0.00 0.27 0.00 91 1012.5
20260901082018 73 0 0.0 4.0 0.00 0.27 0.00 91 1012.5
20260901081536 73 0 0.0 4.0 0.00 0.27 0.00 91 1012.4
20260901081018 73 178 1.0 4.0 0.00 0.27 0.00 91 1012.5
20260901080518 73 0 0.0 4.0 0.00 0.27 0.00 91 1012.6
20260901080037 73 0 1.0 4.0 0.00 0.27 0.00 90 1012.6
20260901075519 73 198 1.0 3.0 0.00 0.27 0.00 90 1012.5
20260901075022 73 0 0.0 2.0 0.00 0.27 0.00 89 1012.6
20260901074545 74 0 0.0 2.0 0.00 0.27 0.00 89 1012.5
20260901074019 74 0 0.0 0.0 0.00 0.27 0.00 89 1012.5
20260901073518 74 0 0.0 0.0 0.00 0.27 0.00 89 1012.4
20260901073037 74 0 0.0 2.0 0.00 0.27 0.00 89 1012.4
20260901072523 74 0 0.0 4.0 0.00 0.27 0.00 89 1012.4
20260901072015 74 187 0.0 5.0 0.00 0.27 0.00 89 1012.4
20260901071539 74 252 1.0 5.0 0.00 0.27 0.00 90 1012.5
20260901071023 74 207 2.0 5.0 0.00 0.27 0.00 90 1012.5
20260901070517 74 205 2.0 4.0 0.00 0.27 0.00 89 1012.5
20260901070039 74 209 1.0 2.0 0.00 0.27 0.00 89 1012.6
20260901065520 74 182 0.0 3.0 0.00 0.27 0.00 89 1012.6
20260901065017 74 0 0.0 3.0 0.00 0.27 0.00 89 1012.5
20260901064536 74 0 0.0 3.0 0.00 0.27 0.00 89 1012.7
20260901064018 74 232 0.0 3.0 0.00 0.27 0.00 88 1012.5
20260901063515 75 199 1.0 3.0 0.00 0.27 0.00 88 1012.6
20260901063038 75 232 0.0 0.0 0.00 0.27 0.00 88 1012.6
20260901062520 75 0 0.0 0.0 0.00 0.27 0.00 88 1012.6
20260901062023 75 0 0.0 3.0 0.00 0.27 0.00 87 1012.6
20260901061536 75 0 0.0 3.0 0.00 0.27 0.00 87 1012.5
20260901061017 75 0 0.0 4.0 0.00 0.27 0.00 87 1012.6
20260901060517 75 0 0.0 5.0 0.00 0.27 0.00 87 1012.6
20260901060041 75 228 0.0 5.0 0.00 0.27 0.00 87 1012.4
20260901055520 75 215 3.0 6.0 0.00 0.27 0.00 87 1012.5
20260901055016 75 245 1.0 6.0 0.00 0.27 0.00 87 1012.4
20260901054540 75 209 2.0 6.0 0.00 0.27 0.00 88 1012.5
20260901054018 75 223 2.0 6.0 0.00 0.27 0.00 88 1012.5
20260901053518 75 245 1.0 7.0 0.00 0.27 0.00 88 1012.5
20260901053039 75 250 2.0 7.0 0.00 0.27 0.00 88 1012.6
20260901052518 75 0 1.0 5.0 0.00 0.27 0.00 88 1012.5
20260901052020 75 0 1.0 5.0 0.00 0.27 0.00 88 1012.5
20260901051542 75 190 1.0 5.0 0.00 0.27 0.00 88 1012.5
20260901051018 75 221 2.0 5.0 0.00 0.27 0.00 88 1012.6
20260901050519 75 207 1.0 4.0 0.00 0.27 0.00 88 1012.6
20260901050037 75 211 1.0 4.0 0.00 0.27 0.00 89 1012.7
20260901045518 75 0 0.0 4.0 0.00 0.27 0.27 88 1012.6
20260901045018 75 211 2.0 4.0 0.00 0.27 0.27 88 1012.7
20260901044552 75 217 1.0 4.0 0.00 0.27 0.27 88 1012.7
20260901044020 75 236 0.0 4.0 0.00 0.27 0.27 88 1012.8
20260901043518 75 0 0.0 3.0 0.00 0.27 0.27 88 1012.7
20260901043038 75 238 0.0 4.0 0.00 0.27 0.27 88 1012.9
20260901042520 75 219 1.0 4.0 0.00 0.27 0.27 88 1012.8
20260901042019 75 0 0.0 4.0 0.00 0.27 0.27 88 1012.8
20260901041540 75 0 0.0 3.0 0.00 0.27 0.27 87 1012.7
20260901041020 76 0 0.0 3.0 0.00 0.27 0.27 87 1012.8
20260901040518 76 0 0.0 3.0 0.00 0.27 0.27 87 1012.8
20260901040047 76 211 1.0 2.0 0.00 0.27 0.27 87 1012.8
20260901035515 76 217 1.0 3.0 0.00 0.27 0.27 87 1012.9
20260901035015 76 197 1.0 4.0 0.00 0.27 0.27 87 1012.8
20260901034536 76 228 1.0 4.0 0.00 0.27 0.27 86 1012.8
20260901034021 76 205 1.0 4.0 0.00 0.27 0.27 86 1012.8
20260901033518 77 237 1.0 5.0 0.00 0.27 0.27 86 1012.9
20260901033052 77 215 0.0 5.0 0.00 0.27 0.27 86 1012.9
20260901032517 77 240 1.0 4.0 0.00 0.27 0.27 86 1012.9
20260901032020 77 222 1.0 5.0 0.00 0.27 0.27 85 1012.9
20260901031536 77 202 1.0 5.0 0.00 0.27 0.27 85 1012.9
20260901031016 77 235 1.0 4.0 0.00 0.27 0.27 85 1013.0
20260901030516 77 0 1.0 5.0 0.00 0.27 0.27 85 1013.0
20260901030037 77 0 0.0 5.0 0.00 0.27 0.27 85 1013.0
20260901025516 77 200 2.0 5.0 0.00 0.27 0.27 85 1012.9
20260901025016 77 197 0.0 4.0 0.00 0.27 0.27 85 1012.9
20260901024534 77 198 1.0 5.0 0.00 0.27 0.27 84 1013.0
20260901024018 78 0 1.0 5.0 0.00 0.27 0.27 84 1013.1
20260901023521 78 0 1.0 3.0 0.00 0.27 0.27 84 1013.1
20260901023045 78 211 1.0 5.0 0.00 0.27 0.27 83 1013.1
20260901022521 78 205 2.0 5.0 0.00 0.27 0.27 83 1013.0
20260901022017 78 240 2.0 4.0 0.00 0.27 0.27 83 1013.0
20260901021551 78 217 0.0 4.0 0.00 0.27 0.27 83 1013.0
20260901021018 78 0 1.0 5.0 0.00 0.27 0.27 82 1013.0
20260901020516 79 197 2.0 5.0 0.00 0.27 0.27 82 1013.0
20260901020035 79 242 2.0 5.0 0.00 0.27 0.27 82 1012.8
20260901015515 79 213 1.0 5.0 0.00 0.27 0.27 82 1012.7
20260901015021 79 189 2.0 7.0 0.00 0.27 0.27 81 1012.5
20260901014539 79 211 2.0 7.0 0.00 0.27 0.27 81 1012.6
20260901014019 79 179 3.0 7.0 0.00 0.27 0.27 81 1012.5
20260901013518 79 245 2.0 7.0 0.00 0.27 0.27 81 1012.5
20260901013048 79 209 3.0 7.0 0.00 0.27 0.27 80 1012.5
20260901012517 80 208 2.0 7.0 0.00 0.27 0.27 80 1012.5
20260901012016 80 213 1.0 5.0 0.00 0.27 0.27 79 1012.3
20260901011556 80 171 3.0 5.0 0.00 0.27 0.27 79 1012.3
20260901011016 80 200 1.0 5.0 0.00 0.27 0.27 78 1012.5
20260901010518 80 205 2.0 6.0 0.00 0.27 0.27 78 1012.3
20260901010036 81 239 2.0 9.0 0.00 0.27 0.27 78 1012.2
20260901005520 81 219 3.0 9.0 0.00 0.27 0.27 78 1012.2
20260901005019 81 174 2.0 6.0 0.00 0.27 0.27 77 1012.1
20260901004538 81 232 2.0 7.0 0.00 0.27 0.27 77 1012.1
20260901004020 81 202 3.0 7.0 0.00 0.27 0.27 77 1012.1
20260901003515 81 264 3.0 7.0 0.00 0.27 0.27 77 1012.0
20260901003046 81 193 3.0 6.0 0.00 0.27 0.27 76 1012.0
20260901002520 81 181 2.0 6.0 0.00 0.27 0.27 76 1012.0
20260901002021 81 196 1.0 7.0 0.00 0.27 0.27 76 1011.9
20260901001537 81 248 2.0 7.0 0.00 0.27 0.27 75 1011.9
20260901001029 82 200 2.0 9.0 0.00 0.27 0.27 75 1011.9
20260901000517 82 207 2.0 9.0 0.00 0.27 0.27 75 1012.0
20260901000037 82 195 2.0 8.0 0.00 0.27 0.27 75 1012.0
20260831235516 82 178 1.0 7.0 0.00 0.27 0.27 75 1012.0
20260831235018 82 209 2.0 8.0 0.00 0.27 0.27 75 1012.1
20260831234533 82 242 2.0 8.0 0.00 0.27 0.27 75 1012.0
20260831234017 82 211 2.0 8.0 0.00 0.27 0.27 75 1011.9
20260831233515 82 218 2.0 8.0 0.00 0.27 0.27 75 1012.0
20260831233033 82 219 3.0 8.0 0.00 0.27 0.27 75 1011.8
20260831232518 82 177 3.0 7.0 0.00 0.27 0.27 74 1011.7
20260831232021 82 227 2.0 7.0 0.00 0.27 0.27 74 1011.7
20260831231535 82 222 2.0 8.0 0.00 0.27 0.27 74 1011.6
20260831231017 82 190 3.0 8.0 0.00 0.27 0.27 74 1011.7
20260831230516 83 210 4.0 7.0 0.00 0.27 0.27 73 1011.8
20260831230035 83 272 3.0 7.0 0.00 0.27 0.27 74 1011.9
20260831225519 83 240 2.0 8.0 0.00 0.27 0.27 74 1011.7
20260831225018 83 207 5.0 11.0 0.00 0.27 0.27 73 1011.6
20260831224536 83 205 5.0 11.0 0.00 0.27 0.27 73 1011.6
20260831224018 83 177 5.0 14.0 0.00 0.27 0.27 73 1011.5
20260831223518 83 189 5.0 14.0 0.00 0.27 0.27 72 1011.4
20260831223045 84 250 6.0 13.0 0.00 0.27 0.27 71 1011.3
20260831222519 84 194 3.0 15.0 0.00 0.27 0.27 70 1011.2
20260831222018 85 265 4.0 15.0 0.00 0.27 0.27 69 1011.2
20260831221547 85 219 6.0 13.0 0.00 0.27 0.27 68 1011.4
20260831221018 85 225 5.0 11.0 0.00 0.27 0.27 69 1011.5
20260831220517 85 171 5.0 14.0 0.00 0.27 0.27 69 1011.4
20260831220036 85 143 4.0 14.0 0.00 0.27 0.27 69 1011.4
20260831215518 85 225 4.0 12.0 0.00 0.27 0.27 70 1011.4
20260831215016 85 246 3.0 10.0 0.00 0.27 0.27 71 1011.4
20260831214536 84 220 5.0 11.0 0.00 0.27 0.27 70 1011.5
20260831214019 84 205 6.0 11.0 0.00 0.27 0.27 70 1011.6
20260831213519 84 169 4.0 10.0 0.00 0.27 0.27 70 1011.5
20260831213035 84 256 4.0 11.0 0.00 0.27 0.27 70 1011.6
20260831212518 84 198 4.0 11.0 0.00 0.27 0.27 70 1011.7
20260831212018 84 212 4.0 11.0 0.00 0.27 0.27 70 1011.6
20260831211544 84 165 4.0 11.0 0.00 0.27 0.27 69 1011.5
20260831211016 83 249 3.0 9.0 0.00 0.27 0.27 71 1011.3
20260831210523 83 213 3.0 9.0 0.00 0.27 0.27 71 1011.2
20260831210035 83 194 3.0 12.0 0.00 0.27 0.27 71 1011.1
20260831205517 83 178 5.0 12.0 0.00 0.27 0.27 70 1011.1
20260831205024 83 252 3.0 8.0 0.00 0.27 0.27 70 1011.0
20260831204534 83 245 2.0 8.0 0.00 0.27 0.27 71 1011.1
20260831204020 83 221 3.0 8.0 0.00 0.27 0.27 71 1011.0
20260831203520 83 223 2.0 11.0 0.00 0.27 0.27 70 1011.2
20260831203044 83 244 4.0 11.0 0.00 0.27 0.27 69 1011.2
20260831202521 83 221 6.0 11.0 0.00 0.27 0.27 69 1011.3
20260831202022 83 219 3.0 14.0 0.00 0.27 0.27 69 1011.5
20260831201543 83 173 6.0 14.0 0.00 0.27 0.27 68 1011.6
20260831201018 84 250 6.0 12.0 0.00 0.27 0.27 67 1011.3
20260831200515 84 257 4.0 12.0 0.00 0.27 0.27 66 1011.3
20260831200035 84 240 5.0 13.0 0.00 0.27 0.27 66 1011.3
20260831195518 85 211 6.0 13.0 0.00 0.27 0.27 65 1011.2
20260831195018 85 214 6.0 12.0 0.00 0.27 0.27 64 1011.2
20260831194538 85 225 6.0 12.0 0.00 0.27 0.27 63 1011.3
20260831194017 86 233 5.0 15.0 0.00 0.27 0.27 62 1011.3
20260831193516 86 257 6.0 15.0 0.00 0.27 0.27 62 1011.3
20260831193032 87 245 6.0 14.0 0.00 0.27 0.27 61 1011.4
20260831192519 88 193 5.0 15.0 0.00 0.27 0.27 60 1011.4
20260831192023 88 265 7.0 15.0 0.00 0.27 0.27 59 1011.5
20260831191534 88 226 5.0 12.0 0.00 0.27 0.27 60 1011.5
20260831191018 88 247 6.0 15.0 0.00 0.27 0.27 59 1011.4
20260831190518 88 219 6.0 15.0 0.00 0.27 0.27 61 1011.3
20260831190042 88 236 5.0 14.0 0.00 0.27 0.27 62 1011.3
20260831185515 87 200 4.0 14.0 0.00 0.27 0.27 65 1011.2
20260831185016 87 198 4.0 11.0 0.00 0.27 0.27 66 1011.2
20260831184537 86 245 6.0 13.0 0.00 0.27 0.27 67 1011.3
20260831184015 86 160 5.0 13.0 0.00 0.27 0.27 67 1011.4
20260831183520 85 240 3.0 10.0 0.00 0.27 0.27 69 1011.3
20260831183041 85 169 2.0 11.0 0.00 0.27 0.27 68 1011.4
20260831182516 84 184 4.0 11.0 0.00 0.27 0.27 67 1011.4
20260831182018 84 238 5.0 13.0 0.00 0.27 0.27 67 1011.5
20260831181536 84 215 5.0 13.0 0.00 0.27 0.27 66 1011.5
20260831181016 84 233 4.0 12.0 0.00 0.27 0.27 67 1011.6
20260831180516 84 170 5.0 14.0 0.00 0.27 0.27 67 1011.6
20260831180042 84 202 6.0 14.0 0.00 0.27 0.27 65 1011.6
20260831175522 84 247 5.0 12.0 0.00 0.27 0.27 67 1011.7
20260831175021 84 218 5.0 16.0 0.00 0.27 0.27 66 1011.7
20260831174536 84 185 7.0 16.0 0.00 0.27 0.27 66 1011.8
20260831174021 84 215 5.0 18.0 0.00 0.27 0.27 65 1011.8
20260831173520 84 261 6.0 18.0 0.00 0.27 0.27 65 1011.7
20260831173037 84 190 7.0 14.0 0.00 0.27 0.27 66 1011.8
20260831172517 84 217 6.0 20.0 0.00 0.27 0.27 65 1011.9
20260831172019 84 215 8.0 20.0 0.00 0.27 0.27 65 1011.8
20260831171534 84 215 8.0 18.0 0.00 0.27 0.27 64 1011.9
20260831171019 84 200 7.0 15.0 0.00 0.27 0.27 65 1012.0
20260831170516 84 277 6.0 15.0 0.00 0.27 0.27 66 1012.0
20260831170040 83 177 7.0 20.0 0.00 0.27 0.27 66 1012.0
20260831165524 83 219 7.0 20.0 0.00 0.27 0.27 67 1012.0
20260831165020 83 249 7.0 18.0 0.00 0.27 0.27 66 1012.2